Location: Unspecified
(48.2082°N, 0.0000°E)
Time: 16:40:06
(UTC+00:00)

S-56A Canister/Altair - Pass Details

Date: 27 June 2019
Orbit: 632 x 2500 km, 38.9° (Epoch: 15 July)

Event Time Altitude Azimuth Distance (km) Brightness Sun altitude
Rises 12:47:08 0° 210° (SSW) 5,973 12.5 63.6°
Reaches altitude 10° 12:52:12 10° 199° (SSW) 4,757 12.2 63.3°
Maximum altitude 13:01:45 26° 152° (SSE) 3,117 11.2 62.5°
Drops below altitude 10° 13:09:08 10° 101° (E) 3,612 11.0 61.9°
Sets 13:12:20 0° 89° (E) 4,314 11.2 61.6°
